Back to catalog

OPS 4682 DEB

AlivePO
NORAD 18691·DEBRIS·🇺🇸 United States

Launched Apr 3, 1965 from Vandenberg Space Force Base

Loading…

Next Passes (next 24 hours)

TLE

FreshSource: Space-Track

Epoch: Sep 13, 2026, 12:54 UTC

1 18691U 65027AJ  26256.53756360  .00000012  00000-0  15503-4 0  9992
2 18691  90.2303 358.5828 0025167 228.9716 143.4903 12.96788654836545

Track OPS 4682 DEB in real time with AllMySat

Download on the App Store